Tracking 31027 objects as of 19-Jul-2025
HD Live streaming from Space Station
objects crossing your sky now

COSMOS 2408

Track COSMOS 2408 now!
10-day predictions
COSMOS 2408 is classified as:


NORAD ID: 28419
Int'l Code: 2004-037A
Perigee: 1,478.3 km
Apogee: 1,501.3 km
Inclination: 82.5 °
Period: 115.6 minutes
Semi major axis: 7860 km
RCS: 0.961 m2 (medium)
Launch date: September 23, 2004
Source: Commonwealth of Independent States (former USSR) (CIS)
Launch site: PLESETSK MISSILE AND SPACE COMPLEX (PKMTR)

Store-dump communications for Russian government and military.
Your satellite tracking list
NUSAT-20 (GRACE)
Track 1 satellite(s)




NASA's NSSDC Master Catalog

Two Line Element Set (TLE):
1 28419U 04037A   25199.85349189  .00000037  00000-0  19156-3 0  9996
2 28419  82.4848 174.6776 0014665 281.0719  78.8713 12.45669941946569
Source of the keplerian elements: AFSPC